Вернуться в каталог

STARLINK-3189

АктивенСвязьVLEO
NORAD 51464·PAYLOAD·🇺🇸 United States

Запущен Feb 3, 2022 с Cape Canaveral Space Force Station

Loading…

Ближайшие Пролёты (ближайшие 24 часа)

TLE

СвежийSource: CelesTrak SupGP

Эпоха: Sep 15, 2026, 01:11 UTC

1 51464C 22010J   26258.04979167  .00017204  00000+0  50834-3 0  2585
2 51464  53.1592 141.5575 0001313  80.3016  82.3263 15.34379730    18

Отслеживайте STARLINK-3189 в реальном времени с AllMySat

Download on the App Store